Time,TemperatureF,DewpointF,PressureIn,WindDirection,WindDirectionDegrees,WindSpeedMPH,WindSpeedGustMPH,Humidity,HourlyPrecipIn,Conditions,Clouds,dailyrainin,SolarRadiationWatts/m^2,SoftwareType,DateUTC
2013-12-22 01:00:00,39.0,30.0,30.06,North,5,4.0,-999.0,69,0.00,,,-99.99,-1.800000,,2013-12-22 09:00:00,
2013-12-22 01:43:00,39.0,30.0,30.06,North,5,4.0,-999.0,69,0.00,,,-99.99,-1.800000,,2013-12-22 09:43:00,
2013-12-22 01:54:00,39.0,30.0,30.06,North,5,4.0,-999.0,69,0.00,,,-99.99,-1.800000,,2013-12-22 09:54:00,
2013-12-22 10:00:00,49.0,33.0,30.21,North,2,2.0,-999.0,53,0.00,,,-99.99,290.000000,,2013-12-22 18:00:00,
2013-12-22 10:42:00,49.0,33.0,30.21,North,2,2.0,-999.0,53,0.00,,,-99.99,290.000000,,2013-12-22 18:42:00,
2013-12-22 10:52:00,49.0,33.0,30.21,North,2,2.0,-999.0,53,0.00,,,-99.99,290.000000,,2013-12-22 18:52:00,
2013-12-22 11:00:00,56.0,36.0,30.22,SSW,203,1.0,-999.0,46,0.00,,,-99.99,399.200012,,2013-12-22 19:00:00,
2013-12-22 11:42:00,56.0,36.0,30.22,SSW,203,1.0,-999.0,46,0.00,,,-99.99,399.200012,,2013-12-22 19:42:00,
2013-12-22 11:52:00,56.0,36.0,30.22,SSW,203,1.0,-999.0,46,0.00,,,-99.99,399.200012,,2013-12-22 19:52:00,
2013-12-22 12:00:00,61.0,36.0,30.20,SW,224,0.0,-999.0,39,0.00,,,-99.99,453.799988,,2013-12-22 20:00:00,
2013-12-22 12:42:00,61.0,36.0,30.20,SW,224,0.0,-999.0,39,0.00,,,-99.99,453.799988,,2013-12-22 20:42:00,
2013-12-22 12:53:00,61.0,36.0,30.20,SW,224,0.0,-999.0,39,0.00,,,-99.99,453.799988,,2013-12-22 20:53:00,
2013-12-22 13:00:00,62.0,36.0,30.19,West,259,2.0,-999.0,38,0.00,,,-99.99,329.200012,,2013-12-22 21:00:00,
2013-12-22 13:43:00,62.0,36.0,30.19,West,259,2.0,-999.0,38,0.00,,,-99.99,329.200012,,2013-12-22 21:43:00,
2013-12-22 13:53:00,62.0,36.0,30.19,West,259,2.0,-999.0,38,0.00,,,-99.99,329.200012,,2013-12-22 21:53:00,
2013-12-22 14:00:00,61.0,37.0,30.19,SE,129,1.0,-999.0,41,0.00,,,-99.99,173.699997,,2013-12-22 22:00:00,
2013-12-22 14:43:00,61.0,37.0,30.19,SE,129,1.0,-999.0,41,0.00,,,-99.99,173.699997,,2013-12-22 22:43:00,
2013-12-22 14:53:00,61.0,37.0,30.19,SE,129,1.0,-999.0,41,0.00,,,-99.99,173.699997,,2013-12-22 22:53:00,
2013-12-22 15:00:00,59.0,38.0,30.19,SSE,149,0.0,-999.0,46,0.00,,,-99.99,78.599998,,2013-12-22 23:00:00,
2013-12-22 15:42:00,59.0,38.0,30.19,SSE,149,0.0,-999.0,46,0.00,,,-99.99,78.599998,,2013-12-22 23:42:00,
2013-12-22 15:53:00,59.0,38.0,30.19,SSE,149,0.0,-999.0,46,0.00,,,-99.99,78.599998,,2013-12-22 23:53:00,
2013-12-22 16:00:00,55.0,40.0,30.21,WSW,255,0.0,-999.0,56,0.00,,,-99.99,28.700001,,2013-12-23 00:00:00,
2013-12-22 16:42:00,55.0,40.0,30.21,WSW,255,0.0,-999.0,56,0.00,,,-99.99,28.700001,,2013-12-23 00:42:00,
2013-12-22 16:52:00,55.0,40.0,30.21,WSW,255,0.0,-999.0,56,0.00,,,-99.99,28.700001,,2013-12-23 00:52:00,